• In Hungary
  • List of Countries
  • For 7 days
  • Water Temperature
  • Satellite Maps
  • Weather Map
  • News
  • Weather Widgets
  • user-avatar
    Login

    Hourly Weather Chudel'

    Today, 23 May, Wednesday

    Time Temperature Precipitation Wind Pressure Humidity
    00:00 +14°C° 0 mm 3 mps 751 mmHg 90%
    01:00 +13°C° 0 mm 3 mps 751 mmHg 91%
    02:00 +14°C° 0 mm 2 mps 751 mmHg 93%
    03:00 +14°C° 0 mm 2 mps 751 mmHg 92%
    04:00 +13°C° 0 mm 2 mps 751 mmHg 92%
    05:00 +13°C° 0 mm 2 mps 751 mmHg 92%
    06:00 +15°C° 0 mm 2 mps 751 mmHg 85%
    07:00 +17°C° 0 mm 2 mps 752 mmHg 78%
    08:00 +19°C° 0 mm 2 mps 752 mmHg 71%
    09:00 +21°C° 0 mm 2 mps 752 mmHg 64%
    10:00 +24°C° 0 mm 3 mps 752 mmHg 57%
    11:00 +26°C° 0 mm 3 mps 752 mmHg 49%
    12:00 +27°C° 0.1 mm 3 mps 752 mmHg 47%
    13:00 +27°C° 0.1 mm 2 mps 752 mmHg 46%
    14:00 +28°C° 0.1 mm 2 mps 752 mmHg 44%
    15:00 +27°C° 0 mm 2 mps 751 mmHg 46%
    16:00 +27°C° 0 mm 2 mps 751 mmHg 49%
    17:00 +26°C° 0 mm 1 mps 751 mmHg 52%
    18:00 +24°C° 0.2 mm 1 mps 751 mmHg 59%
    19:00 +23°C° 0.2 mm 2 mps 751 mmHg 66%
    20:00 +20°C° 0.2 mm 2 mps 751 mmHg 72%
    21:00 +19°C° 0.6 mm 2 mps 751 mmHg 78%
    22:00 +18°C° 0.6 mm 2 mps 751 mmHg 83%
    23:00 +16°C° 0.6 mm 2 mps 751 mmHg 88%

    Tomorrow, 24 May, Thursday

    Time Temperature Precipitation Wind Pressure Humidity
    00:00 +16°C° 0.2 mm 2 mps 751 mmHg 89%
    01:00 +15°C° 0.2 mm 2 mps 752 mmHg 89%
    02:00 +15°C° 0.2 mm 2 mps 752 mmHg 90%
    03:00 +14°C° 0.1 mm 2 mps 752 mmHg 90%
    04:00 +14°C° 0.1 mm 2 mps 752 mmHg 90%
    05:00 +14°C° 0.1 mm 2 mps 751 mmHg 90%
    06:00 +15°C° 0 mm 2 mps 752 mmHg 85%
    07:00 +17°C° 0 mm 2 mps 752 mmHg 80%
    08:00 +18°C° 0 mm 3 mps 752 mmHg 74%
    09:00 +20°C° 0 mm 3 mps 752 mmHg 65%
    10:00 +22°C° 0 mm 3 mps 752 mmHg 57%
    11:00 +24°C° 0 mm 3 mps 752 mmHg 48%
    12:00 +25°C° 0 mm 3 mps 751 mmHg 46%
    13:00 +25°C° 0 mm 3 mps 751 mmHg 44%
    14:00 +26°C° 0 mm 4 mps 751 mmHg 43%
    15:00 +26°C° 0 mm 4 mps 751 mmHg 45%
    16:00 +25°C° 0 mm 4 mps 751 mmHg 47%
    17:00 +25°C° 0 mm 4 mps 750 mmHg 49%
    18:00 +22°C° 0 mm 3 mps 750 mmHg 57%
    19:00 +20°C° 0 mm 3 mps 750 mmHg 64%
    20:00 +19°C° 0 mm 3 mps 750 mmHg 72%
    21:00 +17°C° 0 mm 3 mps 750 mmHg 77%
    22:00 +16°C° 0 mm 2 mps 750 mmHg 82%
    23:00 +15°C° 0 mm 2 mps 750 mmHg 86%

    Day after tomorrow, 25 May, Friday

    Time Temperature Precipitation Wind Pressure Humidity
    00:00 +15°C° 0 mm 2 mps 750 mmHg 89%
    01:00 +14°C° 0 mm 2 mps 750 mmHg 91%
    02:00 +14°C° 0 mm 2 mps 750 mmHg 94%
    03:00 +14°C° 0 mm 1 mps 751 mmHg 94%
    04:00 +13°C° 0 mm 1 mps 751 mmHg 95%
    05:00 +13°C° 0 mm 1 mps 751 mmHg 95%
    06:00 +15°C° 0 mm 2 mps 751 mmHg 87%
    07:00 +18°C° 0 mm 2 mps 751 mmHg 79%
    08:00 +20°C° 0 mm 2 mps 752 mmHg 71%
    09:00 +21°C° 0 mm 2 mps 752 mmHg 64%
    10:00 +24°C° 0 mm 2 mps 752 mmHg 56%
    11:00 +26°C° 0 mm 2 mps 752 mmHg 48%
    12:00 +26°C° 0 mm 3 mps 752 mmHg 47%
    13:00 +27°C° 0 mm 3 mps 752 mmHg 45%
    14:00 +27°C° 0 mm 3 mps 752 mmHg 44%
    15:00 +27°C° 0 mm 3 mps 752 mmHg 47%
    16:00 +27°C° 0 mm 4 mps 752 mmHg 49%
    17:00 +27°C° 0 mm 4 mps 752 mmHg 52%
    18:00 +25°C° 0.1 mm 3 mps 752 mmHg 59%
    19:00 +22°C° 0.1 mm 3 mps 752 mmHg 66%
    20:00 +21°C° 0.1 mm 2 mps 753 mmHg 73%
    21:00 +20°C° 0.1 mm 3 mps 753 mmHg 76%
    22:00 +19°C° 0.1 mm 3 mps 753 mmHg 80%
    23:00 +18°C° 0.1 mm 4 mps 754 mmHg 83%

    26 May, Saturday

    Time Temperature Precipitation Wind Pressure Humidity
    00:00 +18°C° 0 mm 4 mps 754 mmHg 85%
    01:00 +17°C° 0 mm 3 mps 754 mmHg 86%
    02:00 +17°C° 0 mm 3 mps 755 mmHg 88%
    03:00 +16°C° 0 mm 3 mps 755 mmHg 88%
    04:00 +14°C° 0 mm 4 mps 755 mmHg 88%
    05:00 +14°C° 0 mm 4 mps 756 mmHg 88%
    06:00 +15°C° 0 mm 4 mps 756 mmHg 82%
    07:00 +17°C° 0 mm 4 mps 756 mmHg 76%
    08:00 +18°C° 0 mm 4 mps 756 mmHg 70%
    09:00 +19°C° 0 mm 5 mps 756 mmHg 64%
    10:00 +21°C° 0 mm 5 mps 756 mmHg 59%
    11:00 +22°C° 0 mm 5 mps 757 mmHg 54%
    12:00 +23°C° 0 mm 5 mps 756 mmHg 51%
    13:00 +25°C° 0 mm 5 mps 756 mmHg 48%
    14:00 +25°C° 0 mm 5 mps 756 mmHg 45%
    15:00 +25°C° 0 mm 5 mps 756 mmHg 46%
    16:00 +23°C° 0 mm 5 mps 756 mmHg 47%
    17:00 +23°C° 0 mm 5 mps 755 mmHg 48%
    18:00 +21°C° 0 mm 5 mps 756 mmHg 54%
    19:00 +19°C° 0 mm 4 mps 756 mmHg 60%
    20:00 +17°C° 0 mm 4 mps 756 mmHg 66%
    21:00 +15°C° 0 mm 4 mps 756 mmHg 68%
    22:00 +14°C° 0 mm 4 mps 756 mmHg 71%
    23:00 +13°C° 0 mm 4 mps 757 mmHg 73%

    27 May, Sunday

    Time Temperature Precipitation Wind Pressure Humidity
    00:00 +13°C° 0 mm 3 mps 756 mmHg 75%
    01:00 +12°C° 0 mm 3 mps 756 mmHg 78%
    02:00 +11°C° 0 mm 3 mps 756 mmHg 80%
    03:00 +11°C° 0 mm 3 mps 756 mmHg 81%
    04:00 +10°C° 0 mm 3 mps 756 mmHg 82%
    05:00 +10°C° 0 mm 3 mps 756 mmHg 83%
    06:00 +12°C° 0 mm 3 mps 756 mmHg 76%
    07:00 +14°C° 0 mm 4 mps 756 mmHg 70%
    08:00 +17°C° 0 mm 4 mps 756 mmHg 63%
    09:00 +18°C° 0 mm 4 mps 756 mmHg 58%
    10:00 +20°C° 0 mm 4 mps 756 mmHg 53%
    11:00 +21°C° 0 mm 4 mps 756 mmHg 47%
    12:00 +22°C° 0 mm 4 mps 756 mmHg 45%
    13:00 +22°C° 0 mm 4 mps 755 mmHg 44%
    14:00 +24°C° 0 mm 3 mps 755 mmHg 42%
    15:00 +24°C° 0 mm 3 mps 755 mmHg 43%
    16:00 +24°C° 0 mm 3 mps 755 mmHg 44%
    17:00 +24°C° 0 mm 3 mps 755 mmHg 44%
    18:00 +21°C° 0 mm 3 mps 755 mmHg 52%
    19:00 +19°C° 0 mm 2 mps 755 mmHg 59%
    20:00 +17°C° 0 mm 2 mps 755 mmHg 66%
    21:00 +16°C° 0 mm 2 mps 755 mmHg 69%
    22:00 +15°C° 0 mm 2 mps 755 mmHg 72%
    23:00 +14°C° 0 mm 2 mps 756 mmHg 74%

    28 May, Monday

    Time Temperature Precipitation Wind Pressure Humidity
    00:00 +13°C° 0 mm 2 mps 756 mmHg 76%
    01:00 +13°C° 0 mm 2 mps 756 mmHg 79%
    02:00 +12°C° 0 mm 2 mps 756 mmHg 81%
    03:00 +12°C° 0 mm 2 mps 756 mmHg 82%
    04:00 +12°C° 0 mm 1 mps 756 mmHg 83%
    05:00 +11°C° 0 mm 1 mps 756 mmHg 84%
    06:00 +14°C° 0 mm 2 mps 757 mmHg 76%
    07:00 +16°C° 0 mm 2 mps 757 mmHg 67%
    08:00 +18°C° 0 mm 2 mps 757 mmHg 59%
    09:00 +20°C° 0 mm 3 mps 757 mmHg 54%
    10:00 +21°C° 0 mm 3 mps 757 mmHg 48%
    11:00 +22°C° 0 mm 3 mps 757 mmHg 43%
    12:00 +24°C° 0 mm 3 mps 757 mmHg 40%
    13:00 +25°C° 0 mm 3 mps 757 mmHg 38%
    14:00 +26°C° 0 mm 3 mps 757 mmHg 36%
    15:00 +26°C° 0 mm 3 mps 756 mmHg 38%
    16:00 +26°C° 0 mm 3 mps 756 mmHg 39%
    17:00 +26°C° 0 mm 3 mps 756 mmHg 41%
    18:00 +22°C° 0 mm 3 mps 756 mmHg 49%
    19:00 +20°C° 0 mm 2 mps 756 mmHg 57%
    20:00 +18°C° 0 mm 2 mps 756 mmHg 65%
    21:00 +18°C° 0 mm 1 mps 756 mmHg 68%
    22:00 +16°C° 0 mm 1 mps 756 mmHg 71%
    23:00 +15°C° 0 mm 1 mps 756 mmHg 75%
    Show more